Regional Weather Roundup
Issued by NWS

Home | Current Version | Previous Version | Text Only | Print | Product List | Glossary On
Versions: 1 2 3 4 5 6 7 8 9 10 11 12 13 14 15 16 17 18 19 20 21 22 23 24 25 26 27
000
ASUS45 KCYS 031010
RWRWY

WYOMING REGIONAL WEATHER ROUNDUP
NATIONAL WEATHER SERVICE CHEYENNE WY
300 AM MST SAT DEC 03 2016

NOTE:  "FAIR" INDICATES FEW OR NO CLOUDS BELOW 12,000 FEET
WITH NO SIGNIFICANT WEATHER AND/OR OBSTRUCTIONS TO VISIBILITY.

WYZ001-031100-
YELLOWSTONE NATIONAL PARK

CITY           SKY/WX    TMP DP  RH WIND       PRES   REMARKS
LK YELLOWSTONE   N/A     13   8  81 VRB6      30.05R WCI   4
W YELLOWSTONE  NOT AVBL

$$
WYZ002>013-054>058-071-098>099-031100-
NORTHERN WYOMING

CITY           SKY/WX    TMP DP  RH WIND       PRES   REMARKS
JACKSON        CLOUDY    18  14  86 SW13      30.10S WCI   4
CODY           FAIR      30  10  43 W15G38    29.91  WCI  19
GREYBULL       NOT AVBL
WORLAND        NOT AVBL
SHERIDAN       NOT AVBL
BUFFALO        FAIR      23   6  48 W5        29.87  WCI  17
GILLETTE       FAIR      23  15  71 S20G25    29.89  WCI   8
HULETT         FAIR      30  21  69 S16G23    29.94F WCI  19
NEWCASTLE      NOT AVBL

$$
WYZ014>020-022>026-101>103-031100-
CENTRAL WYOMING

CITY           SKY/WX    TMP DP  RH WIND       PRES   REMARKS
BIG PINEY      NOT AVBL
PINEDALE       PTSUNNY   10   5  79 NW5       30.09F WCI   2
DUBOIS         FAIR      18   5  57 N23G31    29.95F WCI   0
LANDER         FAIR      15   7  70 NW3       29.96F
RIVERTON       NOT AVBL
CASPER         FAIR      20  12  71 SW20      29.97  WCI   4
DOUGLAS        FAIR      14  10  84 SE6       29.99  WCI   5

$$
WYZ021-027>030-104>119-031100-
SOUTHERN WYOMING

CITY           SKY/WX    TMP DP  RH WIND       PRES   REMARKS
EVANSTON       NOT AVBL
FORT BRIDGER   FAIR      17  11  77 SW13G18   30.17R WCI   4
ROCK SPRINGS   FAIR      15  10  80 SW15      30.10F WCI   0
DIXON          CLOUDY    17  14  86 CALM      30.18S
RAWLINS        FAIR      15   8  73 SW15G25   30.05  WCI   0
SARATOGA       FAIR       3   1  92 E5        30.09R WCI  -6
LARAMIE        FAIR       7   3  84 W7        30.01  WCI  -5
CHEYENNE       FAIR      19  11  70 W9        30.04  WCI   8
TORRINGTON     FAIR      22  17  81 S7        30.07  WCI  13
PINE BLUFFS    CLOUDY    19  18  93 W6        30.08F WCI  11

$$




USA.gov is the U.S. government's official web portal to all federal, state and local government web resources and services.